TimeMST,TemperatureF,Dew PointF,Humidity,Sea Level PressureIn,VisibilityMPH,Wind Direction,Wind SpeedMPH,Gust SpeedMPH,PrecipitationIn,Events,Conditions,WindDirDegrees,DateUTC
12:15 AM,1.4,-2.2,85,30.08,10.0,Calm,Calm,-,N/A,,Clear,0,2013-01-14 07:15:00
12:35 AM,1.4,-2.2,85,30.08,10.0,North,3.5,-,N/A,,Clear,350,2013-01-14 07:35:00
12:55 AM,1.4,-0.4,92,30.08,10.0,Calm,Calm,-,N/A,,Clear,0,2013-01-14 07:55:00
1:15 AM,1.4,-2.2,85,30.08,10.0,Calm,Calm,-,N/A,,Clear,0,2013-01-14 08:15:00
1:55 AM,1.4,-0.4,92,30.09,10.0,North,3.5,-,N/A,,Overcast,360,2013-01-14 08:55:00
2:15 AM,1.4,-0.4,92,30.09,10.0,North,4.6,-,N/A,,Overcast,360,2013-01-14 09:15:00
3:15 AM,1.4,-2.2,85,30.09,9.0,NNE,6.9,-,N/A,,Overcast,20,2013-01-14 10:15:00
3:35 AM,1.4,-2.2,85,30.09,10.0,NNE,5.8,-,N/A,,Partly Cloudy,20,2013-01-14 10:35:00
3:55 AM,-0.4,-4.0,85,30.09,10.0,NNE,4.6,-,N/A,,Mostly Cloudy,30,2013-01-14 10:55:00
4:15 AM,1.4,-0.4,92,30.09,10.0,NNE,4.6,-,N/A,,Overcast,20,2013-01-14 11:15:00
4:35 AM,1.4,-2.2,85,30.09,10.0,North,4.6,-,N/A,,Overcast,10,2013-01-14 11:35:00
4:55 AM,1.4,-2.2,85,30.09,6.0,North,4.6,-,N/A,,Overcast,350,2013-01-14 11:55:00
5:15 AM,1.4,-2.2,85,30.10,8.0,North,4.6,-,N/A,,Overcast,10,2013-01-14 12:15:00
5:35 AM,1.4,-2.2,85,30.10,10.0,North,3.5,-,N/A,,Overcast,360,2013-01-14 12:35:00
5:55 AM,1.4,-2.2,85,30.10,10.0,North,3.5,-,N/A,,Overcast,10,2013-01-14 12:55:00
6:35 AM,1.4,-4.0,78,30.11,10.0,Calm,Calm,-,N/A,,Overcast,0,2013-01-14 13:35:00
6:55 AM,1.4,-0.4,92,30.13,10.0,NNE,6.9,-,N/A,,Overcast,20,2013-01-14 13:55:00
7:15 AM,-0.4,-5.8,78,30.13,10.0,NNE,4.6,-,N/A,,Scattered Clouds,30,2013-01-14 14:15:00
7:55 AM,1.4,-4.0,78,30.14,10.0,North,4.6,-,N/A,,Mostly Cloudy,10,2013-01-14 14:55:00
8:15 AM,1.4,-4.0,78,30.14,10.0,North,4.6,-,N/A,,Overcast,10,2013-01-14 15:15:00
8:35 AM,1.4,-4.0,78,30.14,10.0,North,5.8,-,N/A,,Overcast,350,2013-01-14 15:35:00
8:55 AM,1.4,-2.2,85,30.14,10.0,North,3.5,-,N/A,,Overcast,350,2013-01-14 15:55:00
9:15 AM,3.2,-2.2,78,30.14,10.0,Calm,Calm,-,N/A,,Mostly Cloudy,0,2013-01-14 16:15:00
10:55 AM,10.4,-2.2,57,30.10,10.0,NNE,3.5,-,N/A,,Clear,30,2013-01-14 17:55:00
11:15 AM,10.4,-0.4,62,30.09,10.0,North,3.5,-,N/A,,Clear,10,2013-01-14 18:15:00
11:35 AM,12.2,-0.4,57,30.08,10.0,Calm,Calm,-,N/A,,Clear,0,2013-01-14 18:35:00
11:55 AM,14.0,-0.4,53,30.07,10.0,Calm,Calm,-,N/A,,Clear,0,2013-01-14 18:55:00
12:15 PM,12.2,1.4,62,30.06,10.0,Calm,Calm,-,N/A,,Clear,0,2013-01-14 19:15:00
12:35 PM,14.0,1.4,57,30.05,10.0,East,3.5,-,N/A,,Clear,90,2013-01-14 19:35:00
12:55 PM,14.0,-0.4,53,30.03,10.0,Calm,Calm,-,N/A,,Clear,0,2013-01-14 19:55:00
1:15 PM,12.2,-0.4,57,30.03,10.0,Calm,Calm,-,N/A,,Clear,0,2013-01-14 20:15:00
1:35 PM,14.0,1.4,57,30.03,10.0,East,3.5,-,N/A,,Clear,100,2013-01-14 20:35:00
1:55 PM,15.8,1.4,53,30.03,10.0,ESE,3.5,-,N/A,,Clear,120,2013-01-14 20:55:00
2:15 PM,15.8,3.2,58,30.03,10.0,East,3.5,-,N/A,,Clear,100,2013-01-14 21:15:00
2:35 PM,15.8,1.4,53,30.04,10.0,SE,3.5,-,N/A,,Clear,130,2013-01-14 21:35:00
2:55 PM,15.8,1.4,53,30.05,10.0,East,4.6,-,N/A,,Clear,100,2013-01-14 21:55:00
3:15 PM,15.8,1.4,53,30.06,10.0,SSE,5.8,-,N/A,,Clear,150,2013-01-14 22:15:00
3:35 PM,15.8,1.4,53,30.06,10.0,SE,4.6,-,N/A,,Clear,140,2013-01-14 22:35:00
3:55 PM,15.8,1.4,53,30.07,10.0,ESE,8.1,-,N/A,,Clear,110,2013-01-14 22:55:00
4:15 PM,15.8,1.4,53,30.07,10.0,SE,6.9,-,N/A,,Clear,130,2013-01-14 23:15:00
4:35 PM,14.0,1.4,57,30.07,10.0,SE,8.1,-,N/A,,Clear,130,2013-01-14 23:35:00
4:55 PM,12.2,1.4,62,30.08,10.0,SE,6.9,-,N/A,,Clear,140,2013-01-14 23:55:00
5:15 PM,10.4,-0.4,62,30.08,10.0,SE,8.1,-,N/A,,Clear,130,2013-01-15 00:15:00
5:35 PM,8.6,-0.4,67,30.09,10.0,SSE,6.9,-,N/A,,Clear,150,2013-01-15 00:35:00
5:55 PM,8.6,1.4,73,30.09,10.0,SE,6.9,-,N/A,,Clear,140,2013-01-15 00:55:00
6:15 PM,8.6,1.4,73,30.10,10.0,SE,4.6,-,N/A,,Clear,140,2013-01-15 01:15:00
6:35 PM,6.8,1.4,79,30.10,10.0,SE,5.8,-,N/A,,Clear,140,2013-01-15 01:35:00
6:55 PM,6.8,1.4,79,30.09,10.0,SSE,5.8,-,N/A,,Clear,150,2013-01-15 01:55:00
7:15 PM,6.8,1.4,79,30.09,10.0,SE,5.8,-,N/A,,Clear,140,2013-01-15 02:15:00
7:55 PM,3.2,-2.2,78,30.08,10.0,Calm,Calm,-,N/A,,Clear,0,2013-01-15 02:55:00
8:35 PM,6.8,3.2,85,30.07,10.0,South,3.5,-,N/A,,Clear,180,2013-01-15 03:35:00
8:55 PM,6.8,1.4,79,30.07,10.0,South,3.5,-,N/A,,Clear,180,2013-01-15 03:55:00
9:15 PM,5.0,1.4,85,30.06,10.0,South,3.5,-,N/A,,Clear,180,2013-01-15 04:15:00
9:35 PM,5.0,1.4,85,30.06,10.0,SSE,4.6,-,N/A,,Clear,160,2013-01-15 04:35:00
9:55 PM,3.2,-0.4,85,30.06,10.0,Calm,Calm,-,N/A,,Clear,0,2013-01-15 04:55:00
10:15 PM,1.4,-5.8,72,30.06,10.0,NNE,5.8,-,N/A,,Clear,20,2013-01-15 05:15:00
10:35 PM,1.4,-0.4,92,30.07,10.0,North,6.9,-,N/A,,Clear,350,2013-01-15 05:35:00
10:55 PM,1.4,-0.4,92,30.06,10.0,North,5.8,-,N/A,,Clear,10,2013-01-15 05:55:00
11:15 PM,-0.4,-4.0,85,30.06,10.0,North,6.9,-,N/A,,Clear,10,2013-01-15 06:15:00
11:35 PM,1.4,-2.2,85,30.06,10.0,North,6.9,-,N/A,,Clear,10,2013-01-15 06:35:00
11:55 PM,1.4,-2.2,85,30.06,10.0,NNE,8.1,-,N/A,,Clear,20,2013-01-15 06:55:00